Regional Weather Roundup
Issued by NWS

Home | Current Version | Previous Version | Text Only | Print | Product List | Glossary On
Versions: 1 2 3 4 5 6 7 8 9 10 11 12 13 14 15 16 17 18 19 20 21 22 23 24 25 26 27 28 29 30 31 32 33 34 35 36 37 38 39 40 41 42 43 44 45 46 47 48 49 50
000
ASUS46 KSTO 230804
RWRCA

NORTHERN AND CENTRAL CA REGIONAL WEATHER ROUNDUP
NATIONAL WEATHER SERVICE SACRAMENTO CA
1200 AM PST MON JAN 23 2017

NOTE: FAIR INDICATES FEW OR NO CLOUDS BELOW 12,000 FEET WITH NO
SIGNIFICANT WEATHER AND/OR OBSTRUCTIONS TO VISIBILITY.

CAZ001-003-230900-
NORTHWEST AREA

CITY           SKY/WX    TMP DP  RH WIND       PRES   REMARKS
CRESCENT CITY  CLOUDY    44  38  79 SE14G20   29.63R
UKIAH          CLOUDY    40  39  97 CALM      29.70S
$$

CAZ006-505>513-230900-
BAY AREA

CITY           SKY/WX    TMP DP  RH WIND       PRES   REMARKS
SANTA ROSA     LGT RAIN  42  41  96 N6        29.70R
SAN RAFAEL     N/A       45  MM  MM MISG
NAPA           CLOUDY    47  44  90 CALM      29.72R
CONCORD        CLOUDY    48  42  80 S9        29.72R
OAKLAND CITY   N/A      MM  MM  MM MISG
OAKLAND        MOCLDY    49  43  80 S7        29.73R
SAN FRAN CITY  N/A       MM  MM  MM MISG
SAN FRAN ARPT  MOCLDY    48  40  73 SW8       29.72S
LIVERMORE      LGT RAIN  46  40  79 SW8       29.71R
HAYWARD        MOCLDY    48  42  80 SE7       29.72R
REDWOOD CITY   N/A       MM  MM  MM MISG
MOFFETT ARPT   LGT RAIN  47  42  83 CALM      29.75R
SAN JOSE ARPT  CLOUDY    47  43  86 SE7       29.74R
$$
CAZ034-037-514>518-230900-
CENTRAL COAST

CITY           SKY/WX    TMP DP  RH WIND       PRES   REMARKS
WATSONVILLE    CLOUDY    44  44 100 CALM      29.77R
SALINAS        RAIN      46  43  89 E5        29.76F
MONTEREY       CLOUDY    47  43  86 VRB5      29.76S
SAN LUIS OBISP MOCLDY    54  46  74 SW15G24   29.81F
SANTA MARIA    MOCLDY    50  48  93 MISG      29.85R
$$
CAZ015-016-230900-
NORTHERN SACRAMENTO VALLEY

CITY           SKY/WX    TMP DP  RH WIND       PRES   REMARKS
REDDING        CLOUDY    44  40  85 S12       29.66R
RED BLUFF      CLOUDY    45  41  86 SE13      29.69R
OROVILLE       CLOUDY    45  40  82 SE9       29.71R
$$
CAZ016>018-230900-
SOUTHERN SACRAMENTO VALLEY

CITY           SKY/WX    TMP DP  RH WIND       PRES   REMARKS
AUBURN         CLOUDY    39  39 100 SE6       29.69S WCI  35
BEALE AFB      CLOUDY    45  45 100 SE6       29.70R
LINCOLN        CLOUDY    45  41  87 SE6       29.71R
MARYSVILLE     MOCLDY    45  42  89 S7        29.72R
SAC INTL ARPT  CLOUDY    46  44  93 SE7       29.71R
MATHER AIRPORT NOT AVBL
DOWNTOWN SAC   N/A       45  MM  MM MISG
SAC EXEC ARPT  LGT RAIN  45  45 100 SE5       29.72R
VACAVILLE      CLOUDY    44  43  96 CALM      29.72R
TRAVIS AFB     CLOUDY    46  43  91 CALM      29.70S
$$
CAZ019>021-230900-
SAN JOAQUIN VALLEY

CITY           SKY/WX    TMP DP  RH WIND       PRES   REMARKS
STOCKTON       CLOUDY    46  45  96 SE7       29.71S
MODESTO        LGT RAIN  48  44  86 SE8       29.72S
MERCED         LGT RAIN  47  42  83 SW12      29.76R
LEMOORE        PTCLDY    46  42  86 S5        29.78R
FRESNO         CLOUDY    48  46  93 CALM      29.78R
HANFORD        MOCLDY    47  44  90 S5        29.78S
PORTERVILLE    LGT RAIN  49  47  93 E6        29.81F
BAKERSFIELD    CLOUDY    50  43  77 N6        29.81F
$$
CAZ011-012-071-230900-
NORTHERN MOUNTAINS

CITY           SKY/WX    TMP DP  RH WIND       PRES   REMARKS
YREKA          MIX PCPN  32  30  92 E7        29.59R WCI  26
MOUNT SHASTA   CLOUDY    30  28  92 CALM      29.58R FOG
ALTURAS        CLOUDY    29  28  96 CALM      29.55S
$$
CAZ011-012-071-230900-
SIERRA NEVADA MTNS

CITY           SKY/WX    TMP DP  RH WIND       PRES   REMARKS
TRUCKEE        LGT SNOW  25  23  93 CALM      29.57S
TAHOE VLY ARPT LGT SNOW  25  22  88 SE5       29.55S VSB 3/4 WCI  19
MAMMOTH LAKES  LGT SNOW  28  27  94 NW23G38   29.53R WCI  14
$$



USA.gov is the U.S. government's official web portal to all federal, state and local government web resources and services.